DW5479 Weather Reports


time (UTC)temp
F
wind
direction
speed
knots
gust
knots
rain 1hr
in
rain 24hr
in
rain mn
in
humidity
%
barometer
mb
20260506044653 75 187 3.5 9.6 0.00 0.00 0.00 86 1006.8
20260506043004 75 161 2.6 10.4 0.00 0.00 0.00 86 1006.8
20260506041517 76 153 3.5 7.0 0.00 0.00 0.00 85 1006.7
20260506040035 76 165 6.1 12.2 0.00 0.00 0.00 85 1006.4
20260506034622 76 171 5.2 8.7 0.00 0.00 0.00 85 1006.4
20260506033015 77 126 3.5 7.0 0.00 0.00 0.00 85 1006.4
20260506031540 77 155 1.7 7.8 0.00 0.00 0.00 84 1006.1
20260506030053 77 153 1.7 6.1 0.00 0.00 0.00 84 1005.9
20260506024504 77 183 3.5 6.1 0.00 0.00 0.00 84 1005.6
20260506023028 78 140 2.6 7.8 0.00 0.00 0.00 83 1005.4
20260506021544 78 148 1.7 7.8 0.00 0.00 0.00 83 1004.9
20260506014527 79 214 3.5 8.7 0.00 0.00 0.00 81 1004.7
20260506013052 80 137 5.2 8.7 0.00 0.00 0.00 80 1004.6
20260506011515 80 166 2.6 5.2 0.00 0.00 0.00 79 1004.4
20260506010025 81 168 2.6 7.8 0.00 0.00 0.00 78 1004.0
20260506004602 82 138 3.5 10.4 0.00 0.00 0.00 76 1003.8
20260506003113 83 177 2.6 7.8 0.00 0.00 0.00 74 1003.7
20260506001515 84 161 5.2 10.4 0.00 0.00 0.00 72 1003.7
20260506000033 84 146 1.7 5.2 0.00 0.00 0.00 70 1003.5
20260505234609 84 162 2.6 6.1 0.00 0.00 0.00 70 1003.3
20260505233043 85 139 4.3 8.7 0.00 0.00 0.00 68 1003.3
20260505231603 86 142 3.5 6.1 0.00 0.00 0.00 68 1003.3
20260505230015 86 153 2.6 7.0 0.00 0.00 0.00 68 1003.4
20260505224540 85 185 2.6 6.1 0.00 0.00 0.00 69 1003.4
20260505223002 86 157 2.6 8.7 0.00 0.00 0.00 68 1003.6
20260505221523 86 136 2.6 7.8 0.00 0.00 0.00 69 1003.5
20260505220100 85 155 1.7 7.0 0.00 0.00 0.00 68 1003.8
20260505214521 86 190 3.5 7.8 0.00 0.00 0.00 66 1004.0
20260505213027 87 152 3.5 7.8 0.00 0.00 0.00 64 1004.3
20260505211551 87 150 2.6 7.0 0.00 0.00 0.00 65 1004.5
20260505204514 85 129 2.6 7.8 0.00 0.00 0.00 67 1004.9
20260505203031 84 196 3.5 7.0 0.00 0.00 0.00 68 1005.1
20260505201543 84 164 2.6 5.2 0.00 0.00 0.00 69 1005.4
20260505200101 84 156 2.6 7.0 0.00 0.00 0.00 69 1005.5
20260505194526 84 160 2.6 7.0 0.00 0.00 0.00 68 1005.7
20260505193037 84 145 2.6 7.8 0.00 0.00 0.00 69 1006.1
20260505191554 84 141 2.6 6.1 0.00 0.00 0.00 70 1006.2
20260505190100 83 124 3.5 7.0 0.00 0.00 0.00 71 1006.4
20260505184517 82 141 3.5 8.7 0.00 0.00 0.00 72 1006.7
20260505183032 81 154 3.5 6.1 0.00 0.00 0.00 74 1006.9
20260505181553 81 170 2.6 5.2 0.00 0.00 0.00 75 1007.1
20260505180006 80 155 2.6 7.8 0.00 0.00 0.00 76 1007.1
20260505174531 80 167 3.5 7.8 0.00 0.00 0.00 76 1007.2
20260505173046 79 182 2.6 8.7 0.00 0.00 0.00 79 1007.4
20260505171551 78 147 2.6 7.0 0.00 0.00 0.00 80 1007.3
20260505170024 78 160 2.6 6.1 0.00 0.00 0.00 80 1007.4
20260505164540 77 184 2.6 5.2 0.00 0.00 0.00 82 1007.4
20260505163056 76 165 2.6 7.8 0.00 0.00 0.00 83 1007.6
20260505161515 75 164 2.6 5.2 0.00 0.00 0.00 84 1007.6
20260505153006 73 169 4.3 7.8 0.00 0.00 0.00 86 1007.4
20260505151545 73 183 3.5 7.8 0.00 0.00 0.00 86 1007.5
20260505124528 69 162 3.5 8.7 0.00 0.00 0.00 87 1007.2
20260505123109 69 159 0.9 9.6 0.00 0.00 0.00 87 1007.1
20260505121513 69 161 2.6 9.6 0.00 0.00 0.00 87 1006.8
20260505120029 69 167 3.5 9.6 0.00 0.00 0.00 87 1006.7
20260505114609 69 150 5.2 9.6 0.00 0.00 0.00 87 1006.5
20260505113105 69 162 2.6 7.0 0.00 0.00 0.00 87 1006.4
20260505111520 69 146 3.5 10.4 0.00 0.00 0.00 87 1006.5
20260505101550 69 176 3.5 10.4 0.00 0.00 0.00 87 1006.5
20260505100025 69 180 3.5 9.6 0.00 0.00 0.00 87 1006.7
20260505094547 68 179 3.5 9.6 0.00 0.00 0.00 87 1006.6
20260505093059 68 148 1.7 8.7 0.00 0.00 0.00 87 1006.7
20260505091512 68 141 5.2 9.6 0.00 0.00 0.00 87 1006.6
20260505090034 68 168 2.6 6.1 0.00 0.00 0.00 87 1006.9
20260505084548 68 179 2.6 7.8 0.00 0.00 0.00 87 1006.9
20260505083012 68 177 2.6 6.1 0.00 0.00 0.00 87 1007.4
20260505081540 68 172 1.7 6.1 0.00 0.00 0.00 87 1007.5
20260505080057 68 176 1.7 4.3 0.00 0.00 0.00 87 1007.5
20260505074520 68 199 2.6 3.5 0.00 0.00 0.00 87 1007.7
20260505073030 68 151 1.7 4.3 0.00 0.00 0.00 87 1008.0
20260505071548 68 167 0.9 4.3 0.00 0.00 0.00 87 1008.2
20260505070003 68 152 1.7 7.0 0.00 0.00 0.00 87 1008.3
20260505064523 68 156 1.7 7.0 0.00 0.00 0.00 87 1008.3
20260505063041 68 176 3.5 7.0 0.00 0.00 0.00 87 1008.4
20260505061557 68 182 2.6 7.0 0.00 0.00 0.00 87 1008.6
20260505060009 68 179 3.5 7.8 0.00 0.00 0.00 86 1008.7